GFSNGP_prec_cloud_243.txt.gz
Cloud_Cover
2 0 4 4 0 0 0 0 4 0 0 0 39 15 55 65 100 100 100 100 100 100 100 97 75 100 94 100 100 97 100 100 100 100 100 100 100 100 99 34 92 94 100 100
0 0 0 0 0 0 0 0 0 0 2 8 44 5 4 5 100 100 100 100 100 100 100 100 100 100 100 32 5 9 55 100 97 100 100 100 100 100 100 100 100 95 100 100
4 0 0 0 0 5 0 0 0 2 5 5 2 5 5 5 5 15 100 100 100 100 100 80 100 100 100 100 99 100 100 100 95 13 64 100 100 100 100 100 100 100 98 100
5 1 0 0 0 5 4 5 5 78 96 94 28 47 6 5 5 7 76 42 100 100 100 100 100 100 100 100 100 100 100 100 100 100 100 93 87 100 100 100 100 100 100 94
5 40 1 0 18 5 26 4 5 32 99 98 79 57 31 18 5 5 1 6 100 100 100 100 100 100 100 100 100 100 100 100 97 77 100 100 98 100 100 100 100 99 56 78
94 100 72 1 5 5 5 52 100 100 100 100 91 67 5 5 0 0 0 0 0 84 100 100 100 62 100 100 100 100 100 100 100 100 100 100 97 100 73 57 60 100 100 100
35 100 7 5 5 3 80 6 3 4 8 5 5 5 5 4 2 0 0 0 0 0 1 71 100 100 100 100 100 100 100 100 100 100 100 100 100 98 100 100 100 99 68 99
59 100 54 5 56 5 2 0 1 4 5 5 5 5 5 5 0 0 0 3 0 0 0 0 0 51 100 100 100 100 100 100 100 100 94 97 100 100 100 98 100 100 100 69
5 3 0 0 0 0 0 0 5 5 5 5 5 5 5 0 0 3 5 0 0 5 5 5 5 5 5 86 100 100 100 100 97 100 100 99 73 54 99 91 84 83 100 82
19 9 1 0 0 0 0 0 5 0 0 2 5 3 0 0 3 5 5 5 5 5 5 5 5 5 6 39 88 100 100 100 100 100 88 46 40 100 100 100 100 98 90 86
14 0 5 0 0 0 0 0 0 0 3 5 0 0 0 2 6 14 22 19 10 8 8 6 34 34 19 41 100 100 100 100 100 100 100 100 100 64 99 100 100 81 7 33
15 5 5 2 0 0 0 0 0 1 5 5 0 2 5 5 67 100 100 100 100 97 51 6 59 66 50 73 100 100 100 100 100 100 100 100 100 100 100 41 5 47 93 99
20 5 5 5 4 0 0 0 5 5 5 4 5 5 5 5 20 99 100 100 100 100 22 7 98 100 100 100 100 100 100 100 100 100 100 100 100 100 100 100 91 72 100 100
5 5 5 5 4 5 4 1 5 5 5 5 5 5 5 79 100 100 100 100 100 100 7 6 97 17 76 100 100 100 100 100 100 100 100 100 100 100 100 100 100 91 100 100
5 5 5 4 5 0 3 5 5 5 5 5 5 5 34 100 100 100 100 100 100 96 23 51 74 53 99 100 100 100 100 100 100 100 100 100 100 100 100 100 100 100 98 100
5 0 4 5 0 5 5 5 4 5 5 5 5 5 52 100 100 100 100 100 100 100 100 100 100 100 100 100 100 100 100 100 100 100 100 100 100 100 100 100 100 100 100 100
5 0 0 0 5 5 5 5 5 5 5 5 5 6 80 100 100 100 100 74 100 100 100 100 100 100 100 100 100 100 100 100 100 100 100 100 100 100 100 100 100 100 100 100
5 5 2 4 5 5 5 5 5 5 5 5 5 6 55 100 97 100 24 44 100 66 99 100 100 100 100 100 100 100 100 100 100 100 100 100 100 100 100 100 100 100 100 100
5 5 5 5 5 5 5 5 5 5 5 5 5 5 5 12 91 96 20 71 100 99 100 100 100 100 100 100 100 100 100 100 100 100 100 100 100 100 100 100 100 100 100 100
5 5 5 6 5 5 5 5 5 5 5 5 5 5 5 5 30 89 65 100 100 100 100 100 100 100 100 100 100 100 98 100 100 100 100 100 100 100 100 100 100 100 100 100
28 13 17 5 5 5 5 5 5 5 5 5 5 5 5 60 95 91 63 98 100 100 100 100 100 100 100 100 100 100 100 100 100 100 100 100 100 100 100 100 100 100 100 100
24 7 5 27 5 5 4 5 5 5 5 5 5 5 5 13 6 64 21 72 100 100 100 100 100 100 100 100 100 100 100 100 98 100 100 100 100 100 100 100 100 100 100 100
6 25 7 5 12 5 5 5 5 5 5 5 5 5 5 19 41 79 68 7 94 100 100 100 100 100 100 100 100 96 100 100 100 100 100 100 100 100 100 100 100 100 100 100
49 11 63 29 5 5 5 5 5 5 5 5 5 5 8 38 26 24 29 66 93 100 100 100 85 95 100 100 100 100 100 99 100 100 100 100 100 100 100 100 100 100 100 100
22 68 19 45 5 5 5 5 5 2 5 5 5 5 5 5 31 24 23 25 60 75 75 75 48 66 100 100 100 100 100 100 100 100 100 100 100 100 100 100 100 100 100 100
46 53 45 22 5 5 5 3 5 5 5 16 29 26 47 14 9 9 16 51 83 86 74 82 67 77 95 100 100 100 100 100 100 100 100 100 100 100 100 100 100 100 100 100
5 6 5 5 5 5 2 2 5 11 72 89 96 52 97 89 92 98 96 71 71 87 72 74 66 51 44 21 100 100 100 100 100 100 100 100 100 100 100 100 100 100 100 100

GFSNGP_prec_cloud_246.txt.gz
Cloud_Cover
0 0 0 0 0 0 0 0 2 0 0 0 0 5 5 5 5 5 9 100 100 100 100 100 100 100 100 100 100 100 100 100 100 100 100 100 100 100 100 100 100 100 98 100
4 0 0 0 0 0 0 0 0 0 0 1 3 5 4 5 5 2 0 0 10 100 100 100 100 100 100 100 100 100 98 100 100 100 100 100 100 100 100 100 100 100 100 97
4 0 0 0 0 1 4 5 1 6 5 5 5 28 5 5 5 5 5 0 0 14 36 100 100 100 100 100 100 100 100 100 100 100 100 100 100 100 100 100 100 100 100 100
5 1 0 0 0 0 5 4 5 5 5 5 5 5 5 5 5 5 5 0 0 0 2 21 100 100 100 100 100 100 100 100 99 100 100 100 100 100 100 100 100 100 100 100
5 11 0 0 3 5 5 5 5 5 5 5 5 5 5 5 5 5 5 0 0 0 0 4 90 14 92 70 100 100 100 100 100 100 100 100 100 100 100 100 100 100 100 100
76 51 73 0 5 9 34 16 5 61 29 5 5 5 0 0 0 0 0 0 0 1 0 0 0 4 34 50 100 100 100 100 100 100 100 100 100 100 100 100 100 100 96 100
30 95 6 0 2 5 5 3 5 33 10 3 0 0 0 0 0 0 0 0 5 0 0 0 0 2 5 81 55 98 100 100 89 100 100 100 100 100 100 100 83 76 67 86
95 98 72 1 2 0 1 0 1 0 0 0 0 0 3 0 0 0 0 4 0 3 0 1 5 5 5 42 69 97 99 58 66 89 100 100 100 100 100 100 100 100 80 77
2 35 5 4 2 2 0 0 0 0 0 0 0 0 0 0 0 0 2 5 5 5 5 5 5 5 5 5 8 28 100 100 99 98 100 100 100 100 100 100 100 100 100 92
18 48 5 3 1 0 0 0 0 0 0 0 0 0 0 0 0 5 8 86 100 100 96 17 5 5 5 5 71 100 100 99 100 100 100 100 100 100 100 100 100 100 100 100
51 91 2 0 0 0 0 0 0 0 0 2 5 5 3 4 5 5 17 42 100 100 100 30 5 5 5 5 94 100 100 100 100 100 100 100 100 100 100 100 100 100 100 100
96 63 0 0 0 0 0 0 0 0 0 1 5 5 5 5 5 5 22 100 100 100 100 19 5 5 5 5 99 100 100 100 100 100 100 96 93 100 100 100 100 100 100 100
100 17 5 2 0 0 0 0 0 0 0 5 5 5 5 5 5 5 40 100 100 100 100 34 17 6 5 12 100 100 100 100 100 100 100 100 100 100 100 100 100 100 100 100
50 5 5 0 5 5 5 5 0 0 1 5 5 5 5 5 5 15 100 100 100 100 100 100 100 77 30 98 100 100 100 100 100 100 100 100 100 100 100 100 100 100 100 100
87 5 5 3 5 5 5 5 0 5 5 5 5 5 5 5 5 48 100 100 100 100 100 100 100 100 100 100 100 100 100 100 100 100 100 100 100 100 100 100 100 100 100 100
11 5 5 5 5 5 5 5 5 5 5 5 5 5 5 5 5 25 99 100 81 77 100 100 100 100 100 100 100 100 100 100 95 99 100 100 100 100 100 100 100 100 100 100
5 5 5 0 5 5 5 5 5 2 5 5 5 5 5 5 5 5 26 9 48 100 100 100 100 100 100 100 100 100 100 94 79 100 100 100 100 100 100 100 100 100 100 100
4 2 5 5 5 5 5 4 5 5 5 5 5 5 5 5 5 5 47 13 99 100 100 100 100 100 100 100 100 100 100 100 100 100 100 100 100 100 100 100 100 100 100 100
3 5 5 2 5 5 5 5 5 5 5 5 5 5 5 5 7 20 57 63 100 100 97 100 100 100 100 100 100 100 100 100 100 100 100 100 99 100 100 100 100 100 100 100
5 2 0 4 5 5 5 5 5 5 5 5 5 5 5 5 72 37 99 63 77 100 100 100 100 89 100 100 100 100 100 100 100 84 98 100 100 100 100 100 100 100 100 100
5 5 5 5 5 5 5 5 5 5 5 5 5 5 5 5 8 5 64 91 33 100 100 100 100 100 100 90 100 98 100 100 100 100 100 100 100 100 100 100 100 100 100 100
5 5 5 5 5 5 5 5 5 5 5 5 5 14 16 18 6 28 5 42 84 100 100 100 100 100 84 54 78 100 100 100 100 94 100 100 100 100 100 100 100 100 100 100
12 5 5 5 5 5 5 5 5 5 5 5 5 5 8 5 12 73 95 7 66 87 100 100 98 84 67 72 99 100 100 100 100 100 100 100 100 100 100 100 100 100 100 100
82 73 30 7 5 8 5 5 5 5 5 5 5 5 5 25 43 17 61 88 98 100 100 97 78 75 78 54 84 96 100 100 100 100 100 100 100 100 100 99 100 100 100 100
100 100 87 70 6 5 5 3 2 5 5 5 5 5 6 14 73 43 26 76 77 44 72 81 82 80 50 64 43 66 94 100 100 100 100 100 100 100 100 100 100 100 100 100
99 64 42 8 5 5 5 5 5 4 5 25 33 75 94 67 97 100 79 50 20 40 55 77 73 66 57 9 56 6 13 62 100 100 100 100 100 100 100 100 100 100 100 100
99 58 19 18 40 13 5 5 10 5 8 5 22 100 87 43 85 100 100 92 86 68 77 87 100 82 60 77 55 6 14 5 87 100 100 100 100 100 100 100 100 100 100 100

GFSNGP_prec_cloud_249.txt.gz
Cloud_Cover
0 0 0 0 0 0 0 0 0 0 0 0 0 0 0 0 0 0 0 4 0 0 32 4 67 100 100 100 100 100 100 100 100 100 100 100 100 100 100 100 100 100 100 100
0 0 0 0 0 0 0 0 0 0 0 0 0 0 4 1 0 0 0 0 0 0 0 40 100 37 88 93 100 100 100 100 100 100 100 100 100 100 100 100 92 100 100 100
0 0 0 0 0 0 0 0 0 0 1 5 5 5 4 0 0 0 0 0 0 0 5 4 0 82 8 26 77 38 100 91 100 100 100 100 100 100 100 100 100 100 97 100
4 0 0 0 0 0 0 0 0 1 5 5 4 4 0 5 0 0 0 0 0 0 5 5 0 0 0 0 92 25 100 94 37 100 100 100 100 100 100 100 100 100 100 99
5 5 0 0 0 0 1 0 0 2 5 5 5 0 0 5 0 0 0 0 0 0 3 0 1 5 3 0 2 90 100 100 91 5 97 100 100 100 100 100 100 100 100 100
49 5 8 0 1 0 0 3 0 0 4 5 5 5 0 0 0 0 0 0 0 0 2 5 5 5 5 5 5 5 100 100 62 6 6 15 94 100 100 100 100 100 100 100
63 98 61 2 0 5 5 0 0 0 0 4 1 0 0 0 0 0 0 0 0 1 5 5 5 5 5 3 1 5 5 88 100 77 100 28 20 67 83 74 100 100 100 100
99 96 50 2 5 0 0 0 0 0 0 0 0 0 0 0 0 0 0 2 5 5 5 5 5 5 5 0 0 5 5 5 66 100 100 100 100 97 94 100 100 100 100 100
100 100 10 5 5 3 0 0 0 0 0 0 0 0 0 0 0 0 4 5 3 4 4 5 19 5 5 1 5 5 5 10 69 92 76 100 100 100 100 100 100 100 100 100
100 73 2 14 4 0 0 0 0 0 0 0 0 0 0 0 1 3 2 5 5 4 5 13 9 5 5 5 5 5 40 100 100 100 100 100 100 100 99 99 100 100 100 100
100 5 11 38 0 0 0 0 0 0 0 0 0 0 4 5 5 5 5 5 5 6 78 96 56 7 5 5 5 67 100 100 100 100 100 100 100 100 100 90 98 99 100 100
96 5 90 5 0 5 3 0 0 0 0 0 0 0 5 1 5 5 5 5 5 88 100 99 65 45 26 25 81 100 100 100 100 100 100 100 100 100 71 78 100 100 99 88
5 5 7 6 0 5 5 5 0 0 0 0 0 0 0 0 5 5 5 5 67 100 100 100 100 100 93 100 100 100 100 100 100 100 100 100 100 100 100 89 96 99 100 100
5 5 18 5 5 0 4 4 0 4 1 0 0 1 1 4 5 5 5 5 88 83 67 100 100 100 100 100 100 100 100 100 100 100 100 100 100 100 100 100 100 100 100 100
5 89 46 5 2 5 5 5 5 5 2 5 3 0 5 5 3 5 5 8 67 32 97 100 100 100 100 100 100 100 100 100 100 100 100 100 99 95 100 100 100 100 100 100
78 100 70 5 15 5 5 5 5 5 5 5 1 4 5 5 5 5 5 9 28 82 100 100 100 100 100 100 100 100 100 100 100 100 100 100 99 100 94 100 100 100 100 100
100 100 5 5 5 5 5 5 5 5 5 3 0 2 5 4 5 5 5 54 61 100 100 100 100 100 100 100 100 100 100 100 100 100 100 100 100 100 100 100 100 100 100 100
100 72 14 9 5 5 5 5 5 5 5 3 2 5 5 5 5 5 44 55 63 100 100 100 95 86 100 92 100 100 100 100 100 100 100 92 98 100 100 100 100 100 100 100
100 67 31 53 37 58 14 5 5 5 5 5 5 5 5 5 5 6 59 90 16 100 100 100 100 100 97 97 98 97 99 98 100 100 100 99 81 93 100 100 100 100 99 100
65 100 100 60 52 26 5 5 5 5 5 5 5 5 5 5 5 5 5 6 20 91 100 100 100 100 100 95 97 91 88 77 100 100 100 100 98 94 80 88 100 100 100 100
59 14 94 98 54 56 36 5 5 5 5 5 5 5 5 5 5 5 17 16 5 100 100 100 100 100 100 76 80 88 92 97 84 100 100 100 100 100 100 97 97 100 100 100
16 43 84 84 13 6 5 5 5 5 5 5 5 5 5 5 5 5 5 5 16 95 100 100 100 98 67 52 86 98 99 99 99 100 100 100 100 100 97 92 100 100 100 100
42 34 7 17 8 5 5 5 5 5 5 5 5 5 5 5 5 5 5 9 20 47 99 100 84 24 6 87 94 100 100 100 100 100 100 100 100 100 100 100 100 100 99 90
5 5 5 5 5 5 5 5 5 5 5 5 5 5 5 5 11 6 19 65 92 48 93 83 55 5 5 66 90 97 100 100 100 100 100 100 100 100 100 100 100 100 100 100
6 69 90 51 48 6 5 5 5 5 5 5 5 5 15 31 13 5 30 14 50 28 74 64 5 5 5 34 40 42 38 26 36 74 88 88 100 100 100 100 100 100 100 100
86 91 96 84 40 9 5 5 6 5 5 5 7 32 61 21 7 5 5 54 60 67 65 80 49 27 29 51 56 70 60 73 99 79 92 61 85 100 100 100 100 100 100 100
100 100 100 100 76 8 5 5 5 10 16 31 50 21 21 32 9 5 5 45 70 90 66 100 98 68 92 90 72 88 78 61 86 81 71 93 80 92 100 100 100 100 100 100

GFSNGP_prec_cloud_252.txt.gz
Cloud_Cover
0 0 0 0 0 0 0 0 0 0 0 0 0 0 0 1 5 5 5 5 5 3 3 4 0 0 0 4 10 62 58 90 96 100 100 100 100 100 100 100 100 100 100 100
0 0 0 0 0 0 0 0 0 0 0 0 0 0 4 5 5 5 5 4 5 5 4 0 0 0 0 0 0 13 87 100 100 100 100 100 100 100 100 100 100 100 100 100
0 0 0 1 0 0 0 0 0 0 0 0 5 4 5 5 5 5 0 4 4 4 5 5 0 5 0 0 0 0 7 33 100 100 98 16 100 100 100 100 100 100 100 100
0 0 0 3 0 0 0 0 0 0 1 2 5 5 5 5 5 2 1 3 5 5 4 0 0 0 0 0 0 0 0 2 12 97 100 92 37 37 100 100 100 100 100 100
5 0 5 5 2 5 0 0 0 0 4 0 5 5 2 5 2 0 4 5 5 4 0 0 0 0 0 0 0 0 0 1 5 5 6 50 100 35 100 97 100 100 100 100
5 5 2 5 5 5 5 0 0 0 0 5 5 0 5 1 0 4 5 5 4 0 0 0 0 0 0 0 0 0 0 0 4 5 5 5 13 17 45 66 100 100 100 100
5 7 4 2 5 5 19 3 0 0 0 0 0 2 3 0 2 5 5 1 0 0 0 0 0 2 2 1 3 0 0 0 5 5 5 21 72 96 58 68 100 100 100 100
17 27 5 83 81 92 39 0 0 3 0 0 0 0 0 3 5 5 1 0 0 0 0 0 0 5 5 4 5 0 0 2 5 5 14 18 78 100 100 100 100 100 100 100
5 5 36 68 36 91 77 0 0 0 0 0 0 0 4 5 5 5 0 0 0 0 0 0 0 5 5 5 5 5 5 5 5 10 42 57 99 100 100 100 100 100 100 100
5 12 100 100 92 91 1 0 0 1 0 0 0 0 5 5 5 3 0 0 0 0 0 0 4 5 10 5 5 5 5 5 10 81 100 100 100 100 100 100 100 100 100 100
5 46 100 100 100 78 5 0 0 5 3 0 0 0 5 5 4 0 0 0 0 0 0 5 5 5 6 22 21 5 5 15 60 100 100 100 100 100 100 100 100 100 100 100
5 38 99 100 36 51 5 0 5 4 0 0 0 2 2 0 0 0 0 0 0 0 5 5 5 5 5 18 38 17 20 80 100 100 100 100 100 100 54 77 54 100 100 100
5 48 34 69 63 27 5 5 5 2 0 5 4 0 0 0 0 0 0 0 0 4 5 5 5 5 23 70 91 34 80 100 100 100 100 100 100 100 91 21 45 100 100 100
5 5 5 5 10 73 87 5 5 4 0 0 0 0 0 0 0 0 0 0 3 5 5 5 5 32 87 99 69 11 74 100 100 100 100 100 100 100 100 100 100 100 100 72
0 5 0 0 43 100 84 51 5 5 5 0 0 0 0 0 0 0 0 1 5 5 5 5 21 63 96 100 45 28 98 100 100 100 100 100 100 100 100 100 100 100 100 70
0 1 4 2 75 88 51 5 5 5 5 5 4 0 0 0 0 0 0 5 5 5 5 37 71 91 100 100 53 39 91 100 100 100 100 100 100 100 100 100 100 100 100 100
1 5 4 5 18 35 22 5 5 5 5 5 5 4 0 0 0 0 0 5 5 5 8 57 100 100 100 99 77 95 100 100 100 100 100 100 100 100 100 100 100 100 100 100
5 5 5 5 17 5 76 74 16 18 24 5 5 5 4 4 5 5 5 5 10 6 27 100 100 100 100 86 56 100 87 73 82 100 100 100 100 100 100 100 100 100 100 100
5 7 13 5 5 6 25 48 48 52 6 5 5 5 5 26 25 5 5 10 32 48 71 100 100 100 100 100 100 99 78 74 81 86 100 100 84 100 100 100 100 100 100 100
5 5 51 10 5 5 5 9 22 5 5 9 5 7 32 9 19 7 7 34 42 23 72 100 98 100 100 100 98 99 98 94 100 100 100 100 100 99 100 100 100 100 100 100
65 80 26 4 5 6 33 65 21 31 8 5 5 5 5 100 51 5 38 44 100 16 99 100 100 100 64 14 88 100 100 100 100 100 100 100 100 100 100 100 100 100 100 100
78 14 6 26 25 6 11 5 5 5 5 5 5 8 6 39 17 8 32 68 74 52 26 97 100 57 23 51 99 100 100 100 100 100 100 100 100 100 100 100 100 100 100 100
89 100 100 55 9 20 51 5 5 5 6 7 5 11 8 5 5 11 38 43 12 13 5 45 71 10 15 100 100 100 100 100 100 100 100 100 100 100 100 100 100 100 100 100
64 61 8 5 5 5 0 0 0 5 5 5 7 11 6 21 54 31 76 52 20 18 10 78 59 5 33 85 76 70 78 87 87 98 98 96 97 100 100 98 100 100 100 100
19 8 8 7 5 5 5 2 5 5 5 5 5 20 47 36 50 36 84 82 30 48 33 74 5 5 44 5 5 5 38 37 32 58 71 72 98 89 80 86 97 100 100 100
5 6 5 5 5 5 5 5 5 5 5 35 46 14 13 23 30 20 56 37 5 16 26 85 54 5 5 28 5 5 8 88 88 96 100 100 100 100 100 85 91 98 100 100
42 52 37 22 12 5 5 11 15 7 14 57 56 51 76 75 57 40 45 25 6 26 49 19 5 5 30 64 63 50 6 93 99 100 100 100 100 100 100 100 70 89 87 100